This is the latest recevied weather packets stored in our database for station/object HASTNG-WX. If no packets are shown the sender has not sent any weather packets the latest 1 day(s).
| Time | Temp. | Humidity | Pressure | Rain* | Wind** | Luminosity | Snow |
|---|---|---|---|---|---|---|---|
| 1778039129 | 7.22° C | 60% | 980.3 hPa | 0 mm | 1.79 m/s, 267° | - | - |
| 1778037331 | 7.78° C | 57% | 980.2 hPa | 0 mm | 0.89 m/s, 248° | - | - |
| 1778036467 | 7.78° C | 57% | 980.2 hPa | 0 mm | 1.34 m/s, 249° | - | - |
| 1778035531 | 7.78° C | 53% | 980.2 hPa | 0 mm | 1.34 m/s, 247° | - | - |
| 1778034649 | 7.78° C | 51% | 980.3 hPa | 0 mm | 1.34 m/s, 270° | - | - |
| 1778033730 | 8.33° C | 51% | 980.4 hPa | 0 mm | 1.79 m/s, 273° | - | - |
| 1778032853 | 8.89° C | 51% | 980.4 hPa | 0 mm | 1.34 m/s, 278° | - | - |
| 1778031930 | 8.89° C | 44% | 979.9 hPa | 0 mm | 1.34 m/s, 266° | - | - |
| 1778031051 | 8.89° C | 44% | 979.9 hPa | 0 mm | 1.34 m/s, 270° | - | - |
| 1778030130 | 8.33° C | 44% | 979.9 hPa | 0 mm | 1.79 m/s, 287° | - | - |
| 1778029256 | 8.33° C | 44% | 979.9 hPa | 0 mm | 1.79 m/s, 294° | - | - |
| 1778028330 | 9.44° C | 38% | 979.9 hPa | 0 mm | 2.24 m/s, 291° | - | - |
| 1778027445 | 10° C | 36% | 980.4 hPa | 0 mm | 2.68 m/s, 287° | - | - |
| 1778026530 | 10° C | 36% | 980.4 hPa | 0 mm | 3.13 m/s, 293° | - | - |
| 1778025661 | 10.56° C | 36% | 980.4 hPa | 0 mm | 3.58 m/s, 293° | - | - |
| 1778024730 | 10.56° C | 35% | 980 hPa | 0 mm | 4.02 m/s, 293° | - | - |
| 1778023847 | 11.11° C | 34% | 980 hPa | 0 mm | 4.47 m/s, 294° | - | - |
| 1778022931 | 11.11° C | 34% | 980 hPa | 0 mm | 4.47 m/s, 289° | - | - |
| 1778022056 | 11.11° C | 34% | 980 hPa | 0 mm | 4.92 m/s, 290° | - | - |
| 1778021130 | 11.11° C | 34% | 980 hPa | 0 mm | 5.36 m/s, 288° | - | - |
| 1778020249 | 11.67° C | 36% | 980.3 hPa | 0 mm | 5.36 m/s, 287° | - | - |
| 1778019330 | 11.67° C | 36% | 980.3 hPa | 0 mm | 5.81 m/s, 286° | - | - |
| 1778018459 | 12.22° C | 36% | 980.3 hPa | 0 mm | 5.81 m/s, 281° | - | - |
| 1778017530 | 12.22° C | 36% | 980 hPa | 0 mm | 5.81 m/s, 281° | - | - |
| 1778016650 | 12.22° C | 36% | 979.7 hPa | 0 mm | 5.81 m/s, 277° | - | - |
* Rain latest hour (hover to see other rain measurements)
** Current wind speed in m/s (hover to see current wind gust speed)